(22) Kalliope
(22) Kalliope
Epoch 2007 Oct. 27.0 TT = JDT 2454400.5 Goffin
M 82.83186 (2000.0) P Q
n 0.19872121 Peri. 355.92220 +0.46522620 -0.85820346
a 2.9083047 Node 66.23285 +0.81870467 +0.32398851
e 0.1027294 Incl. 13.71039 +0.33658171 +0.39814353
P 4.96 H 6.45 G 0.21 U 0
From 1675 observations at 90 oppositions, 1852-2003, mean residual 0".56.
An explanation of the orbital
elements is available.These orbital elements are also available in forms suitable for loading into a number of popular planetarium-type software programs.
Personalized ephemerides for this object (and others) can be generated using the MPES.
Date TT R. A. (2000) Decl. Delta r Elong. Phase V 2008 01 06 13 02.18 +09 02.6 2.738 2.974 94.1 19.3 11.9 2008 01 11 13 05.40 +09 02.3 2.674 2.979 98.2 19.1 11.9 2008 01 16 13 08.18 +09 05.4 2.612 2.984 102.5 18.8 11.8 2008 01 21 13 10.48 +09 11.8 2.550 2.989 106.9 18.4 11.7 2008 01 26 13 12.27 +09 21.6 2.490 2.993 111.4 17.8 11.7 2008 01 31 13 13.52 +09 34.5 2.432 2.998 116.0 17.2 11.6 2008 02 05 13 14.21 +09 50.6 2.377 3.003 120.8 16.4 11.5 2008 02 10 13 14.32 +10 09.6 2.325 3.008 125.6 15.5 11.5 2008 02 15 13 13.83 +10 31.1 2.277 3.012 130.4 14.4 11.4 2008 02 20 13 12.74 +10 54.6 2.232 3.017 135.4 13.3 11.3 2008 02 25 13 11.07 +11 19.7 2.193 3.022 140.3 12.1 11.2 2008 03 01 13 08.83 +11 45.8 2.159 3.026 145.2 10.8 11.2 2008 03 06 13 06.07 +12 12.2 2.131 3.031 150.0 9.4 11.1 2008 03 11 13 02.82 +12 38.1 2.109 3.035 154.4 8.1 11.0 2008 03 16 12 59.18 +13 02.6 2.094 3.040 158.2 7.0 10.9 2008 03 21 12 55.22 +13 24.9 2.085 3.044 161.1 6.1 10.9 2008 03 26 12 51.05 +13 44.4 2.083 3.049 162.3 5.7 10.9 2008 03 31 12 46.76 +14 00.4 2.088 3.053 161.7 5.9 10.9 2008 04 05 12 42.47 +14 12.4 2.101 3.057 159.4 6.6 11.0 2008 04 10 12 38.29 +14 19.9 2.120 3.062 155.9 7.7 11.0 2008 04 15 12 34.31 +14 22.7 2.145 3.066 151.7 8.9 11.1 2008 04 20 12 30.64 +14 20.7 2.177 3.070 147.1 10.2 11.2 2008 04 25 12 27.35 +14 13.9 2.215 3.074 142.4 11.5 11.3 2008 04 30 12 24.48 +14 02.6 2.258 3.078 137.6 12.7 11.4 2008 05 05 12 22.10 +13 46.9 2.306 3.082 132.8 13.9 11.4 2008 05 10 12 20.23 +13 27.2 2.359 3.086 128.1 14.9 11.5 2008 05 15 12 18.89 +13 03.7 2.415 3.090 123.5 15.8 11.6 2008 05 20 12 18.07 +12 36.9 2.475 3.094 118.9 16.6 11.7 2008 05 25 12 17.78 +12 07.0 2.538 3.097 114.5 17.3 11.8 2008 05 30 12 17.99 +11 34.4 2.603 3.101 110.1 17.9 11.8